Regional Weather Roundup
Issued by NWS

Home | Current Version | Previous Version | Text Only | Print | Product List | Glossary Off
Versions: 1 2 3 4 5 6 7 8 9 10 11 12 13 14 15 16 17 18 19 20 21 22 23 24 25 26 27 28 29 30 31 32 33 34 35 36 37 38 39 40 41 42 43 44 45 46 47 48 49 50

000
ASUS43 KFSD 230810
RWRSD

WEATHER ROUNDUP FOR SOUTH DAKOTA
NATIONAL WEATHER SERVICE SIOUX FALLS SD
300 AM CDT SUN APR 23 2017

NOTE: "FAIR" INDICATES FEW OR NO CLOUDS BELOW 12,000 FEET WITH NO
SIGNIFICANT WEATHER AND/OR OBSTRUCTIONS TO VISIBILITY.


SDZ001>005-009-010-012>017-230900-
NORTHWEST AND NORTH CENTRAL SOUTH DAKOTA

CITY           SKY/WX    TMP DP  RH WIND       PRES   REMARKS
BUFFALO          N/A     45  42  89 NE18      29.86F
FAITH            N/A     42  37  82 S14       29.95F
MOBRIDGE       PTCLDY    41  36  82 E22G32    29.99F
$$

SDZ012>016-024>037-041>051-057-063-072>074-230900-
SOUTHWEST AND SOUTH CENTRAL SOUTH DAKOTA

CITY           SKY/WX    TMP DP  RH WIND       PRES   REMARKS
RAPID CTY ARPT CLEAR     41  32  70 SE9       29.97F
PIERRE         CLEAR     51  29  42 SW14      30.00F
CUSTER         CLOUDY    41  27  57 SW5       30.03F
ELLSWORTH AFB  CLEAR     47  32  56 S12       29.96F HAZE
PHILIP         CLEAR     50  34  54 SW14      30.00F
PINE RIDGE     CLEAR     44  32  62 S13       30.05F
SPEARFISH      FAIR      52  30  43 S9G18     29.94F
WINNER         FAIR      48  32  53 S15       30.08F
$$

SDZ004>011-016>023-039-040-230900-
NORTHEAST SOUTH DAKOTA

CITY           SKY/WX    TMP DP  RH WIND       PRES   REMARKS
ABERDEEN       CLOUDY    36  30  79 NE13      30.11F
WATERTOWN      CLOUDY    46  38  73 SW9       30.07S
BROOKINGS      CLEAR     44  36  73 S8        30.10F
SISSETON         N/A     37  35  92 N10       30.11F
$$

SDZ017-020-022-023-036>040-048>070-230900-
SOUTHEAST SOUTH DAKOTA

CITY           SKY/WX    TMP DP  RH WIND       PRES   REMARKS
SIOUX FALLS    CLEAR     50  36  58 SW5       30.12F
HURON          CLEAR     47  38  71 S9        30.07F
CHAMBERLAIN    CLEAR     52  37  56 S14       30.07F
MITCHELL       CLEAR     50  36  58 S10       30.10F
YANKTON        CLEAR     48  32  53 SW10      30.13F
$$

ABBREVIATIONS USED IN REMARKS
   TC - TEMPERATURE IN CELSIUS
  WCI - WIND CHILL INDEX
   HX - HEAT INDEX
  VSB - VISIBILITY





USA.gov is the U.S. government's official web portal to all federal, state and local government web resources and services.